Content
SEND FEEDBACK

Daily
Averages
Monthly
Summary
United States of America

FAYETTEVILLE, TENNESSEE


Home > North America > United States > Tennessee
Elevation: 700 feet     Latitude: 35 10N     Longitude: 086 33W

WEATHER
 
SELECT A DAY
Number of Records: 298,317;   Date Range: 4/22/02 - 8/30/14
 
SHARE

PRINT THIS DATA

[ ← Previous Day ]
WEATHER ALMANAC - OCTOBER 29, 2013
[ Next Day → ]
[ °C ]   °F
Weather ElementAverageHighLow
Temperature62.1 °F73.4 °F (2:35 pm)50 °F (7:35 am)
Dewpoint52.8 °F57.2 °F (8:15 pm)50 °F (1:55 am)
Humidity74.5 %100 % (12:35 am)46 % (12:55 pm)
Barometer30.25 in30.31 in (9:55 am)30.20 in (5:55 pm)
Wind Speed2.4 mph9.2 mph (9:35 am)
Weather ElementAverage
Visibility8.2 mi
Wind DirectionENE (72.6 °)

Weather ElementTotal
Precipitation---
Heating Degree Days3.3 (Base 65)
Growing Degree Days11.7 (Base 50)
Averaged from 68 records on October 29, 2013
WEATHER CONDITIONS BREAKOUT
WIND DIRECTION BREAKOUT
WEATHER BY HOUR - OCTOBER 29, 2013
[ °C ]   °F
Local TimeTemperatureDewpointHumidityBarometerVisibilityWind DirectionWind SpeedGust SpeedPrecipitationEventsConditions
12:35 AM51.8 °F51.8 °F100 %30.26 in5.0 miCalmMostly Cloudy
12:55 AM51.8 °F51.8 °F100 %30.26 in5.0 miCalmOvercast
1:15 AM53.6 °F51.8 °F94 %30.27 in7.0 miCalmOvercast
1:35 AM51.8 °F51.8 °F100 %30.26 in3.0 miCalmMostly Cloudy
1:55 AM51.8 °F50.0 °F94 %30.26 in5.0 miCalmOvercast
2:15 AM51.8 °F50.0 °F94 %30.26 in5.0 miCalmOvercast
2:35 AM51.8 °F50.0 °F94 %30.26 in5.0 miCalmOvercast
2:55 AM51.8 °F51.8 °F100 %30.26 in5.0 miCalmOvercast
3:15 AM53.6 °F51.8 °F94 %30.27 in7.0 miCalmOvercast
3:35 AM53.6 °F51.8 °F94 %30.27 in5.0 miCalmOvercast
3:55 AM53.6 °F51.8 °F94 %30.26 in5.0 miCalmOvercast
4:15 AM53.6 °F51.8 °F94 %30.27 in5.0 miCalmMostly Cloudy
4:35 AM53.6 °F51.8 °F94 %30.28 in7.0 miCalmMostly Cloudy
4:55 AM53.6 °F51.8 °F94 %30.28 in5.0 miCalmMostly Cloudy
5:15 AM53.6 °F51.8 °F94 %30.28 in5.0 miCalmMostly Cloudy
5:35 AM51.8 °F51.8 °F100 %30.29 in4.0 miCalmMostly Cloudy
6:15 AM51.8 °F51.8 °F100 %30.29 in5.0 miCalmMostly Cloudy
6:35 AM53.6 °F51.8 °F94 %30.29 in5.0 miCalmScattered Clouds
7:15 AM51.8 °F50.0 °F94 %30.29 in3.0 miCalmClear
7:35 AM50.0 °F50.0 °F100 %30.29 in0.8 miCalmMostly Cloudy
8:15 AM53.6 °F51.8 °F94 %30.30 in4.0 miCalmMostly Cloudy
8:35 AM55.4 °F53.6 °F94 %30.30 in5.0 miCalmMostly Cloudy
8:55 AM57.2 °F55.4 °F94 %30.29 in10.0 miSE (130°)3.5 mphScattered Clouds
9:15 AM60.8 °F53.6 °F77 %30.30 in10.0 miSE (140°)3.5 mphClear
9:35 AM62.6 °F51.8 °F68 %30.30 in10.0 miESE (120°)9.2 mphClear
9:55 AM62.6 °F51.8 °F68 %30.31 in10.0 miSSE (150°)6.9 mphClear
10:15 AM64.4 °F51.8 °F64 %30.30 in10.0 miSE (140°)5.8 mphClear
10:35 AM66.2 °F51.8 °F60 %30.30 in10.0 miSSE (150°)6.9 mphClear
10:55 AM66.2 °F50.0 °F56 %30.30 in10.0 miSouth (170°)5.8 mphClear
11:15 AM68.0 °F50.0 °F52 %30.30 in10.0 miSouth (190°)6.9 mphClear
11:35 AM68.0 °F50.0 °F52 %30.29 in10.0 miSSW (200°)4.6 mphClear
11:55 AM69.8 °F50.0 °F49 %30.28 in10.0 miSouth (170°)5.8 mphClear
12:15 PM69.8 °F50.0 °F49 %30.27 in10.0 miSouth (190°)6.9 mphClear
12:35 PM69.8 °F50.0 °F49 %30.26 in10.0 miSSE (160°)5.8 mphScattered Clouds
12:55 PM71.6 °F50.0 °F46 %30.25 in10.0 miSouth (190°)4.6 mphMostly Cloudy
1:15 PM71.6 °F50.0 °F46 %30.24 in10.0 miSSW (200°)8.1 mphScattered Clouds
1:35 PM71.6 °F51.8 °F50 %30.24 in10.0 miSSW (200°)9.2 mphScattered Clouds
1:55 PM71.6 °F51.8 °F50 %30.23 in10.0 miSSW (210°)6.9 mphScattered Clouds
2:15 PM71.6 °F53.6 °F53 %30.23 in10.0 miSSW (210°)8.1 mphScattered Clouds
2:35 PM73.4 °F53.6 °F50 %30.22 in10.0 miSSW (200°)9.2 mphMostly Cloudy
2:55 PM73.4 °F53.6 °F50 %30.22 in10.0 miSSW (200°)6.9 mphScattered Clouds
3:15 PM71.6 °F53.6 °F53 %30.21 in10.0 miSouth (190°)5.8 mphClear
3:35 PM71.6 °F53.6 °F53 %30.22 in10.0 miSouth (180°)4.6 mphMostly Cloudy
3:55 PM73.4 °F53.6 °F50 %30.22 in10.0 miSSW (200°)3.5 mphScattered Clouds
4:15 PM73.4 °F53.6 °F50 %30.22 in10.0 miSW (230°)4.6 mphClear
4:35 PM73.4 °F53.6 °F50 %30.21 in10.0 miSSW (200°)4.6 mphClear
4:55 PM73.4 °F51.8 °F47 %30.21 in10.0 miSSW (200°)4.6 mphClear
5:15 PM71.6 °F53.6 °F53 %30.21 in10.0 miCalmScattered Clouds
5:35 PM71.6 °F53.6 °F53 %30.21 in10.0 miCalmScattered Clouds
5:55 PM68.0 °F55.4 °F64 %30.20 in10.0 miCalmClear
6:15 PM68.0 °F55.4 °F64 %30.20 in10.0 miSE (140°)3.5 mphClear
6:35 PM68.0 °F55.4 °F64 %30.21 in10.0 miCalmClear
6:55 PM68.0 °F55.4 °F64 %30.21 in10.0 miSE (140°)3.5 mphClear
7:15 PM68.0 °F55.4 °F64 %30.21 in10.0 miSE (140°)3.5 mphClear
7:35 PM66.2 °F55.4 °F68 %30.21 in10.0 miCalmClear
7:55 PM62.6 °F55.4 °F77 %30.22 in10.0 miCalmClear
8:15 PM62.6 °F57.2 °F82 %30.23 in10.0 miCalmClear
8:35 PM60.8 °F57.2 °F88 %30.23 in10.0 miCalmClear
8:55 PM60.8 °F55.4 °F82 %30.22 in10.0 miCalmClear
9:15 PM60.8 °F55.4 °F82 %30.23 in10.0 miCalmClear
9:35 PM62.6 °F55.4 °F77 %30.23 in10.0 miCalmClear
9:55 PM62.6 °F55.4 °F77 %30.23 in10.0 miCalmClear
10:15 PM60.8 °F53.6 °F77 %30.23 in10.0 miCalmClear
10:35 PM60.8 °F55.4 °F82 %30.24 in10.0 miCalmClear
10:55 PM60.8 °F55.4 °F82 %30.23 in10.0 miCalmClear
11:15 PM59.0 °F53.6 °F82 %30.24 in7.0 miCalmClear
11:35 PM57.2 °F55.4 °F94 %30.24 in5.0 miCalmClear
11:55 PM57.2 °F55.4 °F94 %30.23 in7.0 miCalmClear
Hourly data recorded from KMDQ, located miles away from Fayetteville, Tennessee







STORIES FROM OUR PARTNERS